Theta_e
313 312 313 312 310 307 303 301 301 299 299 298 298 298 298 298 299 301 306 305 311 315 317 319 320 322 321 317 318 318 317 315 315 315 315 316 318 318 319 319 320 322 324
311 310 310 308 305 303 301 300 299 299 298 298 297 297 297 298 299 299 304 308 309 315 316 318 320 320 318 314 312 313 314 313 312 312 312 314 314 315 315 315 316 318 319
309 307 307 304 302 300 300 299 298 298 297 297 297 296 297 297 298 299 301 307 310 311 313 315 319 316 315 310 308 310 312 311 309 310 311 312 313 312 312 313 314 315 316
307 306 304 302 300 299 298 298 297 296 297 296 296 295 296 297 297 299 300 304 308 309 308 309 311 310 306 305 307 309 310 308 308 309 310 310 310 311 311 311 313 313 313
305 304 303 301 299 297 297 297 296 297 296 295 295 295 295 295 295 296 298 302 303 304 304 298 297 298 301 302 305 308 308 307 307 307 307 307 308 309 309 310 310 311 311
304 303 301 301 298 297 296 296 296 296 296 295 291 293 294 294 295 296 298 298 298 297 297 295 296 296 297 300 304 306 306 305 305 304 305 305 306 306 306 307 308 309 310
304 302 301 300 297 296 296 296 296 294 294 294 293 292 292 293 293 295 296 296 294 294 294 294 295 295 295 298 302 303 303 303 303 303 302 303 303 304 305 306 307 307 308
303 301 300 299 297 296 296 295 295 294 294 294 294 293 290 290 291 292 294 293 292 292 292 291 292 292 294 297 299 299 299 299 300 300 300 301 301 302 303 304 305 306 307
301 300 300 299 297 297 296 296 295 295 293 292 295 296 291 292 290 290 291 292 291 291 292 291 291 291 292 294 295 294 293 294 296 297 298 298 299 300 301 302 303 304 305
301 300 299 299 298 296 296 296 296 296 297 292 291 291 292 295 292 286 290 290 291 290 291 291 291 290 291 292 291 291 290 291 292 293 294 296 297 298 299 300 301 302 303
300 300 299 298 297 296 296 296 294 295 296 296 293 290 290 291 292 293 288 287 290 290 291 291 290 290 290 291 291 290 288 289 290 291 292 293 294 296 298 299 300 301 302
297 298 298 298 297 296 295 295 295 294 294 295 295 293 292 290 290 291 291 289 288 289 290 290 289 290 290 290 288 287 286 287 289 290 291 291 293 294 295 297 298 299 300
296 296 297 296 296 296 295 295 294 294 293 293 294 294 294 294 293 293 293 289 288 287 287 289 289 290 289 290 289 284 284 285 287 288 289 290 291 292 293 294 296 297 297
297 297 296 296 296 295 294 293 293 293 293 292 293 293 292 293 292 292 291 289 285 285 286 287 288 289 289 289 285 282 286 283 285 287 288 289 290 291 292 293 294 295 296
295 295 295 294 294 294 293 293 292 291 291 291 291 291 292 291 290 291 291 292 291 285 283 286 285 288 288 286 285 285 285 283 284 285 286 287 288 289 291 292 293 294 295
295 293 294 293 293 292 292 291 291 291 289 289 288 288 289 289 288 288 288 288 289 291 287 285 285 286 286 284 284 284 284 281 283 283 284 285 287 288 289 290 291 292 292
294 293 293 292 292 291 290 290 290 289 287 288 286 287 287 287 287 286 286 285 285 286 287 280 283 284 284 283 282 283 284 284 284 283 283 285 286 288 288 288 289 290 290
293 292 292 291 291 290 290 289 288 287 286 285 285 285 285 284 285 284 284 283 283 283 285 281 279 280 280 282 282 282 282 282 283 283 283 284 286 286 286 287 287 288 288
291 292 290 290 289 289 289 288 288 287 286 285 285 284 284 284 282 282 282 282 282 280 282 283 279 280 280 281 281 282 282 283 282 282 283 283 284 284 285 286 286 286 286
290 290 290 290 289 289 287 287 286 287 285 285 285 284 284 283 283 281 281 282 281 281 281 280 281 279 280 281 281 280 280 282 281 282 282 282 283 283 284 285 284 283 283
288 288 288 288 288 287 287 286 285 286 285 284 284 283 283 283 284 283 281 282 281 280 280 279 278 278 278 278 278 280 279 279 281 282 281 282 283 283 283 283 283 282 283
286 287 286 286 286 285 286 288 286 284 284 283 282 282 282 282 283 285 285 284 282 280 278 279 279 278 278 279 279 279 278 277 278 283 280 280 282 280 282 282 283 283 283
285 284 285 285 285 286 288 288 287 284 284 283 283 282 281 281 282 282 284 284 283 284 283 281 280 279 279 279 279 278 278 277 278 281 278 276 280 279 281 281 282 282 283
283 284 284 284 284 285 287 288 287 285 284 283 283 282 281 281 281 281 282 281 280 281 281 280 281 281 281 281 280 279 279 279 279 278 277 273 279 278 280 281 282 282 282
282 283 284 284 284 284 286 287 287 285 283 283 283 282 281 280 281 283 281 279 279 279 282 282 282 282 282 281 281 280 277 275 274 275 277 275 276 276 277 278 280 280 281
280 281 282 283 283 284 286 287 286 285 283 282 281 281 282 281 282 284 280 279 277 277 278 280 280 281 281 281 282 280 278 274 274 273 276 274 275 274 273 277 278 278 279
Wind_Speed
10 10 9 8 7 6 7 7 6 5 5 4 4 4 3 3 3 2 3 5 4 5 7 9 10 10 14 12 10 12 12 11 12 12 11 12 12 11 11 13 13 13 13
10 10 10 9 9 8 6 5 5 5 5 4 4 4 4 3 3 3 2 4 7 2 7 8 9 13 13 11 9 8 9 10 10 10 10 11 12 12 13 12 12 12 13
14 13 11 9 8 8 9 7 7 5 5 4 5 4 3 4 4 5 3 3 5 9 4 7 9 11 11 8 7 7 9 10 9 10 10 10 11 12 13 13 14 14 14
15 13 10 10 10 8 7 8 8 7 6 5 5 4 4 4 5 5 5 5 4 6 9 12 12 13 8 6 6 7 9 9 9 10 11 11 11 12 13 13 14 15 15
16 13 11 10 11 10 9 8 7 8 7 7 5 4 4 4 5 4 6 6 6 5 5 9 11 6 6 5 5 7 8 8 8 10 10 10 11 12 12 13 13 13 14
17 14 11 12 12 10 10 10 10 7 7 7 6 6 5 4 4 4 6 6 6 6 5 4 3 5 6 5 6 7 8 7 8 8 10 10 10 10 10 11 11 12 13
19 16 12 13 13 12 13 14 10 12 7 9 7 5 3 3 4 4 5 6 7 5 4 3 2 2 3 4 6 8 8 8 8 9 8 9 10 10 10 11 12 12 13
19 17 16 14 15 12 14 15 14 10 6 11 6 6 5 3 4 5 5 6 7 5 5 4 3 4 4 3 5 8 8 9 9 8 8 9 10 10 10 11 11 12 13
19 18 18 15 15 13 13 15 15 15 10 10 10 4 5 6 7 5 8 7 8 5 5 5 4 5 5 5 6 7 9 9 9 10 9 9 9 10 10 10 11 12 13
20 19 19 17 16 13 14 14 13 12 10 10 7 7 4 2 6 6 6 9 8 7 6 5 5 5 6 5 5 7 7 8 9 10 9 10 10 10 11 11 11 12 13
18 18 19 20 19 15 15 15 15 15 11 10 9 6 7 4 2 4 6 8 8 8 6 5 5 6 6 6 6 6 5 7 8 10 11 10 11 12 12 12 12 12 13
11 17 18 17 17 16 17 15 16 17 13 10 10 9 9 7 7 5 4 8 9 8 8 6 6 6 6 6 6 5 6 6 10 11 11 10 11 12 12 12 13 13 14
11 14 18 18 16 18 17 16 16 16 16 13 13 10 8 7 4 7 6 5 5 4 6 6 6 6 6 6 6 2 1 5 8 9 10 11 12 12 13 13 13 14 14
11 16 16 17 18 17 16 16 13 13 15 13 13 10 8 8 6 7 6 7 4 4 5 6 7 7 7 7 5 2 3 3 7 8 9 10 11 12 13 14 14 14 14
10 13 15 18 18 18 18 17 13 15 14 13 13 11 9 8 7 6 6 6 6 7 9 9 6 10 8 7 5 3 4 2 7 8 8 9 11 12 13 14 15 16 17
12 12 15 16 18 18 17 18 15 14 14 12 10 13 11 8 8 7 6 5 4 5 5 3 8 8 9 6 5 5 5 6 9 6 7 9 11 13 13 14 15 15 15
13 14 14 16 18 19 18 19 19 17 17 16 13 13 14 11 8 8 6 5 5 4 4 3 5 7 10 8 5 5 5 7 5 7 8 11 12 14 13 14 15 15 15
13 13 14 15 17 18 18 19 20 17 19 19 17 15 14 10 13 10 8 9 7 6 4 8 8 7 8 10 7 8 6 6 6 5 8 10 14 13 13 15 16 16 17
14 13 14 15 16 17 19 20 20 19 19 19 18 18 17 16 14 11 11 10 7 5 5 4 6 6 4 8 8 7 6 6 4 5 9 9 12 10 13 16 17 16 16
14 14 15 15 15 16 17 17 19 20 18 17 17 18 18 20 19 17 13 13 11 9 7 6 5 5 5 6 6 4 4 4 3 3 7 8 12 13 17 17 17 15 14
14 13 15 14 13 14 12 16 17 19 18 18 17 17 18 18 23 21 14 15 14 11 9 8 6 5 6 6 7 4 2 3 4 4 5 5 6 7 9 12 12 12 13
11 15 13 14 14 11 18 24 20 17 17 18 18 17 16 19 22 27 27 26 22 18 15 10 9 8 10 7 7 6 3 1 2 3 4 6 7 8 8 8 12 14 17
12 12 15 14 15 15 22 25 27 15 17 18 19 17 16 13 19 18 26 26 25 26 21 15 14 11 10 10 9 8 6 6 6 3 4 9 5 8 8 9 14 15 18
12 12 13 13 14 13 22 24 26 19 16 18 19 18 19 18 20 20 19 17 16 16 16 10 11 10 8 11 10 8 8 7 6 7 6 6 4 7 7 8 18 17 14
13 12 11 13 12 14 23 24 23 18 17 18 16 18 18 17 25 31 20 19 17 15 19 19 14 15 16 16 12 8 8 7 6 4 7 6 5 7 9 8 7 10 13
15 12 13 11 14 15 19 24 23 13 17 13 13 13 22 20 29 36 21 20 19 17 16 15 13 15 15 15 17 10 8 9 6 2 6 5 4 3 4 5 6 7 8
Wind_Direction
192 187 191 190 190 183 183 173 163 156 147 139 133 127 112 97 103 109 92 344 342 119 134 124 127 124 94 87 89 87 78 68 61 55 50 52 50 43 36 32 23 23 22
195 195 192 191 188 188 183 178 170 163 156 156 148 140 130 125 113 115 105 107 3 69 118 123 138 109 102 84 70 69 79 68 63 61 56 54 53 45 36 27 25 21 17
196 191 189 193 194 188 176 168 167 168 166 165 150 147 142 130 127 127 130 133 111 48 109 133 114 110 87 68 64 69 84 68 58 56 53 53 49 39 34 24 22 21 19
196 194 193 189 181 183 187 184 176 172 174 172 161 154 148 145 137 140 142 146 133 116 70 58 71 72 63 50 58 65 69 57 59 56 51 47 44 36 30 22 21 16 11
201 198 194 192 183 180 185 189 186 185 175 168 159 149 143 142 154 154 143 143 118 128 115 79 76 70 74 59 65 79 73 70 67 56 48 44 41 32 24 19 13 5 5
199 202 200 191 184 186 185 185 186 191 184 162 146 146 149 138 153 151 153 148 138 140 144 140 146 86 62 75 92 93 87 80 64 53 44 38 36 28 18 12 6 3 1
199 199 198 194 189 187 188 186 177 176 168 164 138 130 135 162 165 168 172 159 152 153 136 129 128 116 107 88 111 99 81 66 53 48 38 30 20 9 8 5 1 355 352
199 197 195 194 193 187 189 188 179 176 175 184 180 151 171 186 207 198 183 179 165 161 150 146 143 148 143 133 107 82 65 50 39 31 23 13 4 0 357 353 351 348 343
204 200 199 195 195 195 190 188 189 183 174 192 206 187 163 205 156 182 205 195 187 180 168 170 164 158 155 140 144 98 56 38 21 12 360 354 355 348 342 340 340 338 335
207 201 200 197 196 201 200 192 191 197 182 178 198 227 249 122 184 164 204 205 203 203 191 185 172 167 162 158 126 96 55 23 8 354 345 344 340 334 331 332 332 330 331
219 209 203 198 196 195 205 201 190 195 200 185 188 170 206 190 179 153 161 185 209 213 209 196 185 176 174 161 156 121 39 3 352 343 338 337 331 326 324 326 326 327 329
220 212 206 209 206 204 197 200 198 197 196 205 201 191 184 178 186 165 141 167 193 190 197 191 194 180 169 168 134 114 9 351 344 337 330 324 320 319 322 325 326 327 330
219 216 215 211 208 204 203 198 201 197 199 200 204 202 201 205 175 187 168 143 161 159 187 200 190 179 174 171 149 9 61 339 329 319 316 318 319 321 321 321 323 325 326
215 213 213 217 218 212 207 204 204 206 196 199 204 209 199 200 188 185 167 154 158 169 174 153 185 187 180 179 118 160 240 258 297 299 312 320 318 318 319 315 316 318 319
215 211 211 212 212 210 207 202 207 208 201 192 197 202 207 196 195 199 180 175 152 176 202 182 172 192 184 169 155 246 245 239 277 291 313 314 308 309 308 310 313 317 319
232 214 206 210 216 212 206 204 204 201 202 199 194 187 199 187 189 192 188 187 184 158 163 146 197 174 179 182 175 243 254 275 263 279 290 287 290 292 296 303 306 306 309
236 225 217 211 211 212 208 203 206 199 200 199 194 190 192 181 185 183 177 176 182 174 138 173 166 176 182 199 203 222 237 249 255 237 251 274 281 284 295 296 296 298 299
248 234 225 220 214 212 208 211 208 202 200 199 192 191 193 180 193 180 172 176 179 184 157 156 175 182 202 196 205 217 220 239 247 237 261 278 276 284 293 292 292 297 304
268 244 234 225 220 213 209 210 210 207 205 203 193 192 189 185 189 183 177 171 177 173 191 158 149 171 171 189 201 207 217 239 249 265 275 275 264 279 283 286 287 292 300
278 262 243 230 226 217 217 213 211 209 206 206 200 198 194 191 190 182 181 180 170 173 182 185 182 173 184 168 203 207 212 229 281 293 288 269 283 288 285 289 292 301 305
302 274 257 244 229 226 221 212 214 215 203 203 203 198 197 195 194 188 178 180 175 172 173 181 193 189 193 184 194 167 200 304 314 282 277 271 283 294 286 287 287 292 301
323 297 271 254 240 228 225 219 212 212 208 203 203 201 196 190 194 191 192 188 182 175 178 175 186 202 203 188 174 170 164 21 348 164 270 273 274 270 265 260 273 284 285
325 302 283 268 254 243 232 222 214 213 210 207 205 200 197 195 190 188 195 192 193 193 190 179 183 195 190 189 167 170 174 197 231 229 293 283 238 247 251 264 281 283 281
313 298 282 271 269 265 252 235 220 217 215 215 209 201 198 189 190 183 181 186 190 193 197 194 188 187 191 175 177 169 180 215 257 265 236 265 275 262 275 279 284 278 274
301 291 285 279 269 260 258 248 225 214 219 216 212 203 200 194 190 184 181 181 181 187 193 193 184 185 181 173 170 162 183 191 226 226 187 241 257 283 274 264 260 251 259
295 295 284 267 264 264 250 242 232 224 221 214 201 204 204 195 193 189 187 181 182 180 174 181 178 183 184 186 192 189 187 205 202 237 200 236 268 291 283 244 233 285 268